Change the Weather History Date:

Sunday, October 6, 2013

  Actual Average Record
Temperature  
Mean Temperature 75 °F 64 °F  
Max Temperature 84 °F 75 °F 98 °F (1954)
Min Temperature 65 °F 52 °F 38 °F (1935)
Degree Days  
Heating Degree Days 0 3  
Month to date heating degree days 0 18  
Since 1 July heating degree days 3 41  
Cooling Degree Days 10 2  
Month to date cooling degree days 40 15  
Year to date cooling degree days 1556 1490  
Growing Degree Days 24 (Base 50)    
Moisture  
Dew Point 64 °F    
Average Humidity 72    
Maximum Humidity 93    
Minimum Humidity 51    
Precipitation  
Precipitation T in 0.12 in 1.98 in (2005)
Month to date precipitation T 0.71  
Year to date precipitation 38.38 32.55  
Snow  
Snow 0.00 in 0.00 in 0.00 in ()
Month to date snowfall 0.0 0.0  
Since 1 July snowfall 0.0 0.0  
Since 1 September snowfall 0.0 0.0  
Snow Depth 0.00 in    
Sea Level Pressure  
Sea Level Pressure 29.99 in    
Wind  
Wind Speed 6 mph (SSE)    
Max Wind Speed 14 mph    
Max Gust Speed 18 mph    
Visibility 10 miles    
Events      
T = Trace of Precipitation, MM = Missing Value Source: NWS Daily Summary

Daily Weather History Graph

Daily Weather History Graph

Search for Another Location

Airport or City:

Trip Planner

Search our weather history database for the weather conditions in past years. The results will help you decide how hot, cold, wet, or windy it might be!

Date:

Astronomy

Oct. 06, 2013 Rise Set
Actual Time 7:22 AM EDT 7:00 PM EDT
Civil Twilight 6:57 AM EDT 7:25 PM EDT
Nautical Twilight 6:27 AM EDT 7:55 PM EDT
Astronomical Twilight 5:58 AM EDT 8:24 PM EDT
Moon 9:00 AM EDT (10/6) 8:04 PM EDT (10/6)
Length of Visible Light 12h 28m
Length of Day
11h 37m
Waxing Crescent, 3% of the Moon is Illuminated
Oct 6
Waxing Crescent
Oct 11
First Quarter
Oct 18
Full
Oct 26
Last Quarter
Nov 3
New

Hourly Weather History & Observations

Time (EDT) Temp. Heat Index Dew Point Humidity Pressure Visibility Wind Dir Wind Speed Gust Speed Precip Events Conditions
12:52 AM 68.0 °F - 63.0 °F 84% 30.05 in 10.0 mi South 5.8 mph - N/A   Scattered Clouds
1:52 AM 68.0 °F - 63.0 °F 84% 30.04 in 10.0 mi SSE 5.8 mph - N/A   Overcast
2:52 AM 66.9 °F - 63.0 °F 87% 30.03 in 10.0 mi SSE 4.6 mph - N/A   Overcast
3:52 AM 66.9 °F - 64.0 °F 90% 30.01 in 10.0 mi SSE 4.6 mph - N/A   Overcast
4:52 AM 66.9 °F - 63.0 °F 87% 30.01 in 10.0 mi SE 5.8 mph - N/A   Mostly Cloudy
5:52 AM 66.0 °F - 63.0 °F 90% 30.02 in 10.0 mi Calm Calm - N/A   Scattered Clouds
6:52 AM 64.9 °F - 63.0 °F 93% 30.03 in 10.0 mi SSE 3.5 mph - N/A   Scattered Clouds
7:52 AM 66.9 °F - 64.0 °F 90% 30.04 in 10.0 mi South 4.6 mph - N/A   Mostly Cloudy
8:52 AM 70.0 °F - 64.9 °F 84% 30.05 in 10.0 mi South 3.5 mph - N/A   Scattered Clouds
9:52 AM 73.9 °F - 64.9 °F 73% 30.06 in 10.0 mi South 5.8 mph - N/A   Scattered Clouds
10:52 AM 77.0 °F - 63.0 °F 62% 30.05 in 10.0 mi South 6.9 mph - N/A   Partly Cloudy
11:52 AM 79.0 °F - 64.0 °F 60% 30.03 in 10.0 mi Variable 5.8 mph - N/A   Partly Cloudy
12:52 PM 78.1 °F - 64.0 °F 62% 30.01 in 10.0 mi Calm Calm - N/A   Mostly Cloudy
1:52 PM 82.0 °F 83.1 °F 63.0 °F 52% 29.98 in 10.0 mi SSE 9.2 mph - N/A   Scattered Clouds
2:52 PM 82.9 °F 84.0 °F 63.0 °F 51% 29.96 in 10.0 mi South 9.2 mph 17.3 mph N/A   Scattered Clouds
3:52 PM 81.0 °F 81.9 °F 62.1 °F 52% 29.94 in 10.0 mi SW 5.8 mph - N/A   Scattered Clouds
4:52 PM 81.0 °F 81.9 °F 62.1 °F 52% 29.93 in 10.0 mi South 5.8 mph - N/A   Scattered Clouds
5:52 PM 80.1 °F 81.5 °F 63.0 °F 56% 29.92 in 10.0 mi South 6.9 mph - N/A   Scattered Clouds
6:52 PM 78.1 °F - 62.1 °F 58% 29.92 in 10.0 mi South 9.2 mph - N/A   Scattered Clouds
7:52 PM 73.9 °F - 63.0 °F 68% 29.92 in 10.0 mi SSE 6.9 mph - N/A   Mostly Cloudy
8:52 PM 75.0 °F - 63.0 °F 66% 29.92 in 10.0 mi SSE 6.9 mph - N/A   Scattered Clouds
9:52 PM 73.9 °F - 63.0 °F 68% 29.92 in 10.0 mi South 5.8 mph - N/A   Scattered Clouds
10:52 PM 73.9 °F - 66.0 °F 76% 29.92 in 10.0 mi SSE 11.5 mph - N/A   Mostly Cloudy
11:52 PM 73.0 °F - 69.1 °F 87% 29.90 in 10.0 mi SSE 11.5 mph - N/A   Mostly Cloudy